C/2020 K7 ( PanSTARRS )

Japanese version
Home page
Updated on July 8, 2020

---------------------------------------------------------------------

* Profile

Discovery Date May 30, 2020
Magnitude 20.2 mag
Discoverer Pan-STARRS 1 telescope (Haleakala)

* Orbital Elements

Epoch 2019 Nov. 13.0 TT = JDT 2458800.5
T 2019 Oct. 27.80928 TT                                 Rudenko
q   6.3790560            (2000.0)            P               Q
z  +0.0084071      Peri.  358.02278     +0.24890965     +0.82365802
 +/-0.0000000      Node   286.09193     -0.88116912     -0.02576537
e   0.9463705      Incl.   32.02703     -0.40197632     +0.56650121
From 43 observations 2020 May 30-June 28, mean residual 0".4.

* Magnitudes Graph

        m1 = 7.5 + 5 log d + 10.0 log r

---------------------------------------------------------------------

The orbital elements are published on M.P.E.C. 2020-N08.
The magnitudes graphs are made with Comet for Windows.

---------------------------------------------------------------------

Copyright(C) Seiichi Yoshida (comet@aerith.net). All rights reserved.